Location: Appletree Creek
(38.7363°N, 122.6833°W)
Time: 17:08:23
(UTC+00:00)

FALCON 9 DEB - Pass Details

Date: 18 September 2020
Orbit: 426 x 441 km, 53.0° (Epoch: 19 October)

Event Time Altitude Azimuth Distance (km) Brightness Sun altitude
Exits shadow 12:44:37 15° 203° (SSW) 1,230 5.1 -14.5°
Maximum altitude 12:47:07 44° 134° (SE) 600 4.0 -14.0°
Drops below altitude 10° 12:50:24 10° 61° (ENE) 1,527 7.2 -13.4°
Sets 12:52:34 0° 55° (NE) 2,400 8.3 -13.0°
